PROGRESS-MS 15 (45937 NORAD) Tracking and Keplerian Element Data

This shows tracking and keplerian element data for the satellite.

Feedback or suggestion? Click here.




ElementValue
Catalog45937
NamePROGRESS-MS 15
Epoch Orbit25766
Epoch Day334.61902755
Epoch Year2020
RAAN249.9022
Inclination51.6465
Eccentricity0.0001955
Argument of Perigee93.7254
Mean Anonmoly330.4911
Mean Motion15.49108305
Decay Rate5.354E-05
L11 45937U 20050A 20334.61902755 .00005354 00000-0 10487-3 0 9992
L22 45937 51.6465 249.9022 0001955 93.7254 330.4911 15.49108305257668

Live tracking and technical data element details for PROGRESS-MS 15 (NORAD 45937). PROGRESS-MS 15 can be tracked NOW for your location showing map with azimuth and elevation plus other details from your city location.

Track the satellite on the map from your city or location and see movement details for azimuth, elevation, latitude, longitude, range, height, and movement on the map or in text.







IsCatalogInMostPopularTable: catalog: 45937, numindb: 23
Update: records affected: 1



GetName: 45937 PROGRESS-MS 15

Hit Count: updated at: Wed, 02 Dec 2020 05:49:47 GMT